Flag for Sweden Weather past 2 weeks in Eskilstuna, Sweden

Now
55 °F

Partly sunny.


Feels Like: 51 °F
Forecast: 46 / 60 °F
Wind: 17 mph from Southwest

Location: Vasteras / Hasslo

Current Time: May 22, 2015 at 6:30:46 PM

Latest Report: May 22, 2015 at 5:50 PM


Visibility: N/A

Pressure: 29.92 "Hg

Humidity: 67%

Dew point: 45 °F

Location of EskilstunaLocation

Historic Weather in Eskilstuna — Graph

°F

Eskilstuna temperature yesterday

Maximum temperature yesterday: 61 °F (at 2:20 PM)
Minimum temperature yesterday: 36 °F (at 3:50 AM)
Average temperature yesterday: 51 °F

Past Weeks' High & Low Weather Summary

 TemperatureHumidityPressure
High63 °F (May 11, 2:20 PM)100% (May 10, 5:20 AM)30.18 "Hg (May 10, 5:20 AM)
Low30 °F (May 11, 4:50 AM)27% (May 9, 6:20 PM)29.42 "Hg (May 13, 3:20 AM)
Average48 °F71%29.82 "Hg
* Reported May 7 5:20 PM — May 22 5:20 PM, Eskilstuna, Weather by CustomWeather, © 2015

Note: Actual official high and low records may vary slightly from our data, if they occured in-between our weather recording intervals... More about our weather records

Advertising

Eskilstuna weather history for previous 24 hours

 ConditionsComfort  
Time TempWeatherWind HumidityBarometerVisibility
5:20 PM
Fri, May 22
55 °FPartly sunny.17 mph67%29.95 "HgN/A
4:50 PM55 °FPartly sunny.15 mph67%29.95 "HgN/A
4:20 PM55 °FPartly sunny.14 mph67%29.98 "HgN/A
3:50 PM55 °FPartly sunny.16 mph67%29.98 "HgN/A
3:20 PM55 °FPartly sunny.16 mph67%29.98 "HgN/A
2:50 PM55 °FPartly sunny.17 mph67%29.98 "HgN/A
2:20 PM55 °FPartly sunny.17 mph63%30.01 "HgN/A
1:50 PM54 °FPartly sunny.17 mph67%30.01 "HgN/A
1:20 PM54 °FPartly sunny.17 mph67%30.01 "HgN/A
12:50 PM54 °FBroken clouds.17 mph67%30.01 "HgN/A
12:20 PM54 °FPartly sunny.17 mph67%30.04 "HgN/A
11:50 AM54 °FPartly sunny.16 mph63%30.04 "HgN/A
11:20 AM54 °FPartly sunny.16 mph63%30.04 "HgN/A
10:50 AM54 °FPartly sunny.14 mph63%30.04 "HgN/A
10:20 AM52 °FPartly sunny.13 mph72%30.04 "HgN/A
9:50 AM52 °FScattered clouds.14 mph72%30.07 "HgN/A
9:20 AM50 °FPartly sunny.13 mph76%30.07 "HgN/A
8:50 AM50 °FPartly sunny.15 mph71%30.07 "HgN/A
8:20 AM50 °FPartly sunny.13 mph76%30.07 "HgN/A
7:50 AM50 °FPartly sunny.14 mph71%30.07 "HgN/A
7:20 AM48 °FPartly sunny.13 mph76%30.07 "HgN/A
6:50 AM48 °FPartly sunny.12 mph82%30.07 "HgN/A
6:20 AM48 °FScattered clouds.14 mph76%30.07 "HgN/A
5:50 AM48 °FSunny.13 mph76%30.07 "Hg10 mi
5:20 AM46 °FCool.10 mph87%30.07 "HgN/A
4:50 AM46 °FCool.10 mph82%30.07 "HgN/A
4:20 AM46 °FCool.9 mph82%30.07 "HgN/A
3:50 AM46 °FCool.9 mph82%30.07 "HgN/A
3:20 AM46 °FCool.8 mph82%30.07 "HgN/A
2:50 AM48 °FCool.8 mph76%30.07 "HgN/A
2:20 AM48 °FCool.7 mph76%30.07 "HgN/A
1:50 AM50 °FCool.8 mph71%30.07 "HgN/A
1:20 AM50 °FCool.7 mph67%30.07 "HgN/A
12:50 AM50 °FCool.5 mph67%30.07 "HgN/A
12:20 AM52 °FCool.6 mph62%30.07 "HgN/A
11:20 PM
Thu, May 21
54 °FCool.10 mph54%30.07 "HgN/A
10:50 PM54 °FCool.9 mph54%30.07 "HgN/A
10:20 PM54 °FSunny.9 mph54%30.07 "Hg10 mi
9:50 PM54 °FSunny.8 mph51%30.04 "Hg10 mi
9:20 PM55 °FSunny.8 mph47%30.04 "Hg10 mi
8:50 PM57 °FSunny.8 mph44%30.04 "Hg10 mi
8:20 PM57 °FSunny.10 mph44%30.04 "Hg10 mi
7:50 PM59 °FSunny.12 mph39%30.04 "Hg10 mi
7:20 PM59 °FSunny.12 mph39%30.04 "Hg10 mi
6:50 PM61 °FSunny.14 mph39%30.04 "Hg10 mi
6:20 PM61 °FSunny.13 mph42%30.04 "Hg10 mi
Weather by CustomWeather, © 2015

See weather overviewHow to use our weather pages